Time,TemperatureF,DewpointF,PressureIn,WindDirection,WindDirectionDegrees,WindSpeedMPH,WindSpeedGustMPH,Humidity,HourlyPrecipIn,Conditions,Clouds,dailyrainin,SoftwareType,DateUTC
2013-01-27 00:05:00,29.6,26.8,30.50,North,360,0.0,7.0,89,0.00,,,0.00,Wunderground v.1.15,2013-01-27 05:05:00,
2013-01-27 00:14:00,29.7,27.1,30.50,North,360,2.0,3.0,90,0.00,,,0.00,Wunderground v.1.15,2013-01-27 05:14:00,
2013-01-27 00:19:00,29.7,27.1,30.50,North,351,1.0,4.0,90,0.00,,,0.00,Wunderground v.1.15,2013-01-27 05:19:00,
2013-01-27 00:29:00,29.8,27.2,30.50,North,351,2.0,5.0,90,0.00,,,0.00,Wunderground v.1.15,2013-01-27 05:29:00,
2013-01-27 00:34:00,29.8,27.2,30.50,North,351,2.0,5.0,90,0.00,,,0.00,Wunderground v.1.15,2013-01-27 05:34:00,
2013-01-27 00:44:00,29.8,27.2,30.50,North,351,2.0,2.0,90,0.00,,,0.00,Wunderground v.1.15,2013-01-27 05:44:00,
2013-01-27 00:50:00,29.8,27.2,30.49,North,351,3.0,3.0,90,0.00,,,0.00,Wunderground v.1.15,2013-01-27 05:50:00,
2013-01-27 00:59:00,29.9,27.3,30.50,North,351,1.0,1.0,90,0.00,,,0.00,Wunderground v.1.15,2013-01-27 05:59:00,
2013-01-27 01:04:00,29.9,27.3,30.50,North,351,1.0,5.0,90,0.00,,,0.00,Wunderground v.1.15,2013-01-27 06:04:00,
2013-01-27 01:14:00,29.7,27.1,30.50,North,351,0.0,5.0,90,0.00,,,0.00,Wunderground v.1.15,2013-01-27 06:14:00,
2013-01-27 01:19:00,29.7,27.1,30.51,North,350,0.0,5.0,90,0.00,,,0.00,Wunderground v.1.15,2013-01-27 06:19:00,
2013-01-27 01:24:00,29.7,26.9,30.50,North,350,0.0,5.0,89,0.00,,,0.00,Wunderground v.1.15,2013-01-27 06:24:00,
2013-01-27 01:34:00,29.5,26.9,30.51,North,350,0.0,5.0,90,0.00,,,0.00,Wunderground v.1.15,2013-01-27 06:34:00,
2013-01-27 01:44:00,29.3,26.7,30.51,North,350,0.0,5.0,90,0.00,,,0.00,Wunderground v.1.15,2013-01-27 06:44:00,
2013-01-27 01:49:00,29.2,26.6,30.51,North,350,0.0,5.0,90,0.00,,,0.00,Wunderground v.1.15,2013-01-27 06:49:00,
2013-01-27 01:54:00,29.2,26.6,30.51,North,350,0.0,5.0,90,0.00,,,0.00,Wunderground v.1.15,2013-01-27 06:54:00,
2013-01-27 01:59:00,29.2,26.6,30.51,North,350,0.0,5.0,90,0.00,,,0.00,Wunderground v.1.15,2013-01-27 06:59:00,
2013-01-27 02:05:00,29.2,26.6,30.51,North,350,0.0,5.0,90,0.00,,,0.00,Wunderground v.1.15,2013-01-27 07:05:00,
2013-01-27 02:14:00,29.2,26.9,30.52,North,350,0.0,1.0,91,0.00,,,0.00,Wunderground v.1.15,2013-01-27 07:14:00,
2013-01-27 02:19:00,29.1,26.8,30.52,North,350,0.0,1.0,91,0.00,,,0.00,Wunderground v.1.15,2013-01-27 07:19:00,
2013-01-27 02:24:00,29.1,26.8,30.53,North,350,0.0,1.0,91,0.00,,,0.00,Wunderground v.1.15,2013-01-27 07:24:00,
2013-01-27 02:29:00,29.0,26.7,30.53,North,350,0.0,1.0,91,0.00,,,0.00,Wunderground v.1.15,2013-01-27 07:29:00,
2013-01-27 02:34:00,28.9,26.6,30.53,North,350,0.0,1.0,91,0.00,,,0.00,Wunderground v.1.15,2013-01-27 07:34:00,
2013-01-27 02:39:00,28.9,26.9,30.53,North,350,0.0,1.0,92,0.00,,,0.00,Wunderground v.1.15,2013-01-27 07:39:00,
2013-01-27 02:44:00,28.9,26.9,30.53,North,350,0.0,1.0,92,0.00,,,0.00,Wunderground v.1.15,2013-01-27 07:44:00,
2013-01-27 02:49:00,28.9,26.9,30.53,North,350,0.0,1.0,92,0.00,,,0.00,Wunderground v.1.15,2013-01-27 07:49:00,
2013-01-27 02:59:00,29.0,26.7,30.53,North,350,0.0,1.0,91,0.00,,,0.00,Wunderground v.1.15,2013-01-27 07:59:00,
2013-01-27 03:05:00,29.0,26.7,30.53,North,350,0.0,1.0,91,0.00,,,0.00,Wunderground v.1.15,2013-01-27 08:05:00,
2013-01-27 03:14:00,29.0,26.7,30.53,North,350,0.0,0.0,91,0.00,,,0.00,Wunderground v.1.15,2013-01-27 08:14:00,
2013-01-27 03:24:00,29.0,26.7,30.53,North,350,0.0,0.0,91,0.00,,,0.00,Wunderground v.1.15,2013-01-27 08:24:00,
2013-01-27 03:29:00,29.0,26.7,30.53,North,350,0.0,0.0,91,0.00,,,0.00,Wunderground v.1.15,2013-01-27 08:29:00,
2013-01-27 03:34:00,29.0,26.7,30.53,North,350,0.0,0.0,91,0.00,,,0.00,Wunderground v.1.15,2013-01-27 08:34:00,
2013-01-27 03:39:00,29.0,26.7,30.53,North,350,0.0,0.0,91,0.00,,,0.00,Wunderground v.1.15,2013-01-27 08:39:00,
2013-01-27 03:44:00,28.8,26.5,30.53,North,350,0.0,0.0,91,0.00,,,0.00,Wunderground v.1.15,2013-01-27 08:44:00,
2013-01-27 03:49:00,28.6,26.0,30.52,North,350,0.0,0.0,90,0.00,,,0.00,Wunderground v.1.15,2013-01-27 08:49:00,
2013-01-27 03:55:00,28.5,26.2,30.52,North,350,0.0,0.0,91,0.00,,,0.00,Wunderground v.1.15,2013-01-27 08:55:00,
2013-01-27 04:04:00,27.8,25.2,30.52,North,350,0.0,1.0,90,0.00,,,0.00,Wunderground v.1.15,2013-01-27 09:04:00,
2013-01-27 04:14:00,27.4,25.1,30.53,North,350,0.0,1.0,91,0.00,,,0.00,Wunderground v.1.15,2013-01-27 09:14:00,
2013-01-27 04:19:00,27.3,25.0,30.53,South,175,0.0,1.0,91,0.00,,,0.00,Wunderground v.1.15,2013-01-27 09:19:00,
2013-01-27 04:24:00,27.4,25.1,30.53,South,175,0.0,1.0,91,0.00,,,0.00,Wunderground v.1.15,2013-01-27 09:24:00,
2013-01-27 04:29:00,27.5,25.2,30.52,South,186,0.0,1.0,91,0.00,,,0.00,Wunderground v.1.15,2013-01-27 09:29:00,
2013-01-27 04:34:00,27.9,25.3,30.53,South,183,1.0,1.0,90,0.00,,,0.00,Wunderground v.1.15,2013-01-27 09:34:00,
2013-01-27 04:40:00,28.4,25.6,30.52,South,173,1.0,2.0,89,0.00,,,0.00,Wunderground v.1.15,2013-01-27 09:40:00,
2013-01-27 04:49:00,28.9,25.5,30.53,South,187,1.0,1.0,87,0.00,,,0.00,Wunderground v.1.15,2013-01-27 09:49:00,
2013-01-27 04:54:00,29.1,25.4,30.53,South,185,1.0,1.0,86,0.00,,,0.00,Wunderground v.1.15,2013-01-27 09:54:00,
2013-01-27 04:59:00,29.1,25.2,30.53,South,186,0.0,1.0,85,0.00,,,0.00,Wunderground v.1.15,2013-01-27 09:59:00,
2013-01-27 05:05:00,29.0,25.1,30.54,South,173,0.0,1.0,85,0.00,,,0.00,Wunderground v.1.15,2013-01-27 10:05:00,
2013-01-27 05:14:00,28.5,24.8,30.54,South,186,0.0,6.0,86,0.00,,,0.00,Wunderground v.1.15,2013-01-27 10:14:00,
2013-01-27 05:19:00,28.3,24.6,30.54,South,184,0.0,6.0,86,0.00,,,0.00,Wunderground v.1.15,2013-01-27 10:19:00,
2013-01-27 05:24:00,28.1,24.5,30.54,South,171,1.0,6.0,86,0.00,,,0.00,Wunderground v.1.15,2013-01-27 10:24:00,
2013-01-27 05:34:00,27.9,24.5,30.54,South,182,3.0,6.0,87,0.00,,,0.00,Wunderground v.1.15,2013-01-27 10:34:00,
2013-01-27 05:39:00,28.0,24.6,30.54,South,190,2.0,2.0,87,0.00,,,0.00,Wunderground v.1.15,2013-01-27 10:39:00,
2013-01-27 05:44:00,27.9,24.5,30.54,South,190,1.0,6.0,87,0.00,,,0.00,Wunderground v.1.15,2013-01-27 10:44:00,
2013-01-27 05:49:00,27.8,24.4,30.54,South,186,1.0,6.0,87,0.00,,,0.00,Wunderground v.1.15,2013-01-27 10:49:00,
2013-01-27 05:54:00,27.7,24.6,30.54,South,176,1.0,6.0,88,0.00,,,0.00,Wunderground v.1.15,2013-01-27 10:54:00,
2013-01-27 05:59:00,27.5,24.4,30.55,South,183,2.0,2.0,88,0.00,,,0.00,Wunderground v.1.15,2013-01-27 10:59:00,
2013-01-27 06:05:00,27.4,24.3,30.55,South,182,1.0,2.0,88,0.00,,,0.00,Wunderground v.1.15,2013-01-27 11:05:00,
2013-01-27 06:14:00,27.0,24.2,30.55,SSE,167,1.0,6.0,89,0.00,,,0.00,Wunderground v.1.15,2013-01-27 11:14:00,
2013-01-27 06:19:00,26.9,24.1,30.55,South,180,0.0,6.0,89,0.00,,,0.00,Wunderground v.1.15,2013-01-27 11:19:00,
2013-01-27 06:24:00,26.7,23.9,30.56,South,175,0.0,6.0,89,0.00,,,0.00,Wunderground v.1.15,2013-01-27 11:24:00,
2013-01-27 06:29:00,26.5,24.0,30.56,SSW,197,0.0,6.0,90,0.00,,,0.00,Wunderground v.1.15,2013-01-27 11:29:00,
2013-01-27 06:34:00,26.3,23.8,30.56,SSW,196,0.0,6.0,90,0.00,,,0.00,Wunderground v.1.15,2013-01-27 11:34:00,
2013-01-27 06:39:00,26.2,23.7,30.56,SSW,196,0.0,6.0,90,0.00,,,0.00,Wunderground v.1.15,2013-01-27 11:39:00,
2013-01-27 06:49:00,26.0,23.7,30.57,South,191,1.0,1.0,91,0.00,,,0.00,Wunderground v.1.15,2013-01-27 11:49:00,
2013-01-27 06:59:00,25.7,23.4,30.58,South,182,1.0,1.0,91,0.00,,,0.00,Wunderground v.1.15,2013-01-27 11:59:00,
2013-01-27 07:05:00,25.6,23.3,30.58,SSW,196,1.0,5.0,91,0.00,,,0.00,Wunderground v.1.15,2013-01-27 12:05:00,
2013-01-27 07:14:00,25.4,23.4,30.58,SSE,157,1.0,5.0,92,0.00,,,0.00,Wunderground v.1.15,2013-01-27 12:14:00,
2013-01-27 07:19:00,25.4,23.4,30.58,SSW,211,0.0,5.0,92,0.00,,,0.00,Wunderground v.1.15,2013-01-27 12:19:00,
2013-01-27 07:29:00,25.3,23.3,30.59,SSW,192,1.0,5.0,92,0.00,,,0.00,Wunderground v.1.15,2013-01-27 12:29:00,
2013-01-27 07:39:00,25.2,23.5,30.59,South,191,1.0,1.0,93,0.00,,,0.00,Wunderground v.1.15,2013-01-27 12:39:00,
2013-01-27 07:44:00,25.2,23.5,30.59,South,186,1.0,5.0,93,0.00,,,0.00,Wunderground v.1.15,2013-01-27 12:44:00,
2013-01-27 07:54:00,25.0,23.3,30.60,SSW,194,1.0,4.0,93,0.00,,,0.00,Wunderground v.1.15,2013-01-27 12:54:00,
2013-01-27 07:59:00,25.1,23.6,30.60,SSW,192,1.0,1.0,94,0.00,,,0.00,Wunderground v.1.15,2013-01-27 12:59:00,
2013-01-27 08:05:00,25.0,23.5,30.60,SSW,192,1.0,1.0,94,0.00,,,0.00,Wunderground v.1.15,2013-01-27 13:05:00,
2013-01-27 08:14:00,25.2,23.7,30.60,South,186,1.0,5.0,94,0.00,,,0.00,Wunderground v.1.15,2013-01-27 13:14:00,
2013-01-27 08:19:00,25.3,23.8,30.60,South,186,1.0,5.0,94,0.00,,,0.00,Wunderground v.1.15,2013-01-27 13:19:00,
2013-01-27 08:24:00,25.3,23.8,30.61,South,180,1.0,5.0,94,0.00,,,0.00,Wunderground v.1.15,2013-01-27 13:24:00,
2013-01-27 08:29:00,25.5,24.0,30.61,South,186,2.0,2.0,94,0.00,,,0.00,Wunderground v.1.15,2013-01-27 13:29:00,
2013-01-27 08:34:00,25.6,24.1,30.61,South,186,2.0,5.0,94,0.00,,,0.00,Wunderground v.1.15,2013-01-27 13:34:00,
2013-01-27 08:39:00,25.7,24.5,30.61,South,169,2.0,5.0,95,0.00,,,0.00,Wunderground v.1.15,2013-01-27 13:39:00,
2013-01-27 08:44:00,25.9,24.4,30.61,South,188,2.0,5.0,94,0.00,,,0.00,Wunderground v.1.15,2013-01-27 13:44:00,
2013-01-27 08:49:00,26.1,24.6,30.61,SSW,197,1.0,6.0,94,0.00,,,0.00,Wunderground v.1.15,2013-01-27 13:49:00,
2013-01-27 08:59:00,26.5,25.0,30.62,South,190,3.0,5.0,94,0.00,,,0.00,Wunderground v.1.15,2013-01-27 13:59:00,
2013-01-27 09:04:00,26.8,25.3,30.61,South,178,3.0,10.0,94,0.00,,,0.00,Wunderground v.1.15,2013-01-27 14:04:00,
2013-01-27 09:09:00,27.1,25.3,30.62,South,185,3.0,3.0,93,0.00,,,0.00,Wunderground v.1.15,2013-01-27 14:09:00,
2013-01-27 09:19:00,27.6,25.8,30.62,South,184,4.0,10.0,93,0.00,,,0.00,Wunderground v.1.15,2013-01-27 14:19:00,
2013-01-27 09:24:00,27.9,26.1,30.62,WSW,248,5.0,10.0,93,0.00,,,0.00,Wunderground v.1.15,2013-01-27 14:24:00,
2013-01-27 09:34:00,28.4,26.4,30.62,South,189,5.0,10.0,92,0.00,,,0.00,Wunderground v.1.15,2013-01-27 14:34:00,
2013-01-27 09:39:00,28.6,26.3,30.62,South,185,5.0,10.0,91,0.00,,,0.00,Wunderground v.1.15,2013-01-27 14:39:00,
2013-01-27 09:44:00,28.7,26.4,30.62,WSW,249,5.0,11.0,91,0.00,,,0.00,Wunderground v.1.15,2013-01-27 14:44:00,
2013-01-27 09:49:00,28.8,26.5,30.62,SSW,194,6.0,12.0,91,0.00,,,0.00,Wunderground v.1.15,2013-01-27 14:49:00,
2013-01-27 09:54:00,28.8,26.5,30.62,SSW,195,6.0,12.0,91,0.00,,,0.00,Wunderground v.1.15,2013-01-27 14:54:00,
2013-01-27 09:59:00,28.9,26.6,30.62,SSW,194,6.0,10.0,91,0.00,,,0.00,Wunderground v.1.15,2013-01-27 14:59:00,
2013-01-27 10:04:00,28.9,26.3,30.62,South,188,6.0,16.0,90,0.00,,,0.00,Wunderground v.1.15,2013-01-27 15:04:00,
2013-01-27 10:14:00,29.2,26.6,30.63,SSW,198,4.0,16.0,90,0.00,,,0.00,Wunderground v.1.15,2013-01-27 15:14:00,
2013-01-27 10:19:00,29.4,26.8,30.63,South,177,5.0,16.0,90,0.00,,,0.00,Wunderground v.1.15,2013-01-27 15:19:00,
2013-01-27 10:24:00,29.5,26.9,30.62,SSW,194,6.0,16.0,90,0.00,,,0.00,Wunderground v.1.15,2013-01-27 15:24:00,
2013-01-27 10:29:00,29.7,26.9,30.62,SSE,153,5.0,5.0,89,0.00,,,0.00,Wunderground v.1.15,2013-01-27 15:29:00,
2013-01-27 10:34:00,29.7,26.9,30.62,South,170,5.0,16.0,89,0.00,,,0.00,Wunderground v.1.15,2013-01-27 15:34:00,
2013-01-27 10:44:00,30.0,27.2,30.63,South,190,6.0,16.0,89,0.00,,,0.00,Wunderground v.1.15,2013-01-27 15:44:00,
2013-01-27 10:49:00,30.2,27.3,30.63,South,184,6.0,6.0,89,0.00,,,0.00,Wunderground v.1.15,2013-01-27 15:49:00,
2013-01-27 10:54:00,30.3,27.4,30.63,SSW,196,6.0,7.0,89,0.00,,,0.00,Wunderground v.1.15,2013-01-27 15:54:00,
2013-01-27 11:05:00,30.9,28.0,30.64,South,180,6.0,16.0,89,0.00,,,0.00,Wunderground v.1.15,2013-01-27 16:05:00,
2013-01-27 11:14:00,31.4,28.3,30.64,SSW,196,4.0,12.0,88,0.00,,,0.00,Wunderground v.1.15,2013-01-27 16:14:00,
2013-01-27 11:19:00,31.9,28.5,30.65,South,179,4.0,12.0,87,0.00,,,0.00,Wunderground v.1.15,2013-01-27 16:19:00,
2013-01-27 11:29:00,32.9,29.2,30.65,SSW,192,4.0,12.0,86,0.00,,,0.00,Wunderground v.1.15,2013-01-27 16:29:00,
2013-01-27 11:34:00,33.0,28.7,30.64,SSW,200,5.0,12.0,84,0.00,,,0.00,Wunderground v.1.15,2013-01-27 16:34:00,
2013-01-27 11:39:00,33.2,28.6,30.64,SW,225,6.0,6.0,83,0.00,,,0.00,Wunderground v.1.15,2013-01-27 16:39:00,
2013-01-27 11:49:00,33.8,28.9,30.63,South,188,6.0,12.0,82,0.00,,,0.00,Wunderground v.1.15,2013-01-27 16:49:00,
2013-01-27 11:54:00,34.4,28.9,30.62,SSW,196,7.0,12.0,80,0.00,,,0.00,Wunderground v.1.15,2013-01-27 16:54:00,
2013-01-27 11:59:00,34.4,28.9,30.62,WSW,247,6.0,12.0,80,0.00,,,0.00,Wunderground v.1.15,2013-01-27 16:59:00,
2013-01-27 12:05:00,35.7,29.8,30.62,SSW,197,5.0,12.0,79,0.00,,,0.00,Wunderground v.1.15,2013-01-27 17:05:00,
2013-01-27 12:14:00,36.0,29.5,30.61,SSW,197,6.0,11.0,77,0.00,,,0.00,Wunderground v.1.15,2013-01-27 17:14:00,
2013-01-27 12:24:00,36.8,29.6,30.62,SSW,199,7.0,16.0,75,0.00,,,0.00,Wunderground v.1.15,2013-01-27 17:24:00,
2013-01-27 12:29:00,37.4,29.9,30.61,South,170,7.0,7.0,74,0.00,,,0.00,Wunderground v.1.15,2013-01-27 17:29:00,
2013-01-27 12:34:00,37.3,29.4,30.60,SSW,192,6.0,16.0,73,0.00,,,0.00,Wunderground v.1.15,2013-01-27 17:34:00,
2013-01-27 12:39:00,37.8,30.3,30.61,SSW,210,6.0,16.0,74,0.00,,,0.00,Wunderground v.1.15,2013-01-27 17:39:00,
2013-01-27 12:44:00,38.1,29.9,30.60,South,180,7.0,16.0,72,0.00,,,0.00,Wunderground v.1.15,2013-01-27 17:44:00,
2013-01-27 12:49:00,38.6,30.4,30.60,SSW,198,7.0,16.0,72,0.00,,,0.00,Wunderground v.1.15,2013-01-27 17:49:00,
2013-01-27 12:54:00,38.8,29.8,30.60,SSW,192,6.0,16.0,70,0.00,,,0.00,Wunderground v.1.15,2013-01-27 17:54:00,
2013-01-27 13:04:00,39.2,30.2,30.59,SSW,196,6.0,14.0,70,0.00,,,0.00,Wunderground v.1.15,2013-01-27 18:04:00,
2013-01-27 13:14:00,39.6,29.9,30.59,South,188,7.0,14.0,68,0.00,,,0.00,Wunderground v.1.15,2013-01-27 18:14:00,
2013-01-27 13:19:00,40.1,30.4,30.60,South,186,6.0,6.0,68,0.00,,,0.00,Wunderground v.1.15,2013-01-27 18:19:00,
2013-01-27 13:24:00,40.8,30.3,30.60,South,185,5.0,14.0,66,0.00,,,0.00,Wunderground v.1.15,2013-01-27 18:24:00,
2013-01-27 13:29:00,41.3,30.8,30.59,South,178,5.0,14.0,66,0.00,,,0.00,Wunderground v.1.15,2013-01-27 18:29:00,
2013-01-27 13:34:00,41.2,29.9,30.58,South,175,6.0,14.0,64,0.00,,,0.00,Wunderground v.1.15,2013-01-27 18:34:00,
2013-01-27 13:39:00,41.3,30.4,30.59,South,189,7.0,14.0,65,0.00,,,0.00,Wunderground v.1.15,2013-01-27 18:39:00,
2013-01-27 13:44:00,41.6,30.3,30.59,SSW,194,7.0,14.0,64,0.00,,,0.00,Wunderground v.1.15,2013-01-27 18:44:00,
2013-01-27 13:49:00,42.5,30.8,30.59,SSE,157,7.0,7.0,63,0.00,,,0.00,Wunderground v.1.15,2013-01-27 18:49:00,
2013-01-27 13:54:00,42.6,30.5,30.58,SSW,192,6.0,14.0,62,0.00,,,0.00,Wunderground v.1.15,2013-01-27 18:54:00,
2013-01-27 14:04:00,42.6,30.5,30.57,South,172,8.0,14.0,62,0.00,,,0.00,Wunderground v.1.15,2013-01-27 19:04:00,
2013-01-27 14:14:00,43.1,31.0,30.57,South,178,6.0,13.0,62,0.00,,,0.00,Wunderground v.1.15,2013-01-27 19:14:00,
2013-01-27 14:19:00,42.4,30.3,30.58,South,189,6.0,13.0,62,0.00,,,0.00,Wunderground v.1.15,2013-01-27 19:19:00,
2013-01-27 14:29:00,43.2,31.4,30.58,South,182,5.0,5.0,63,0.00,,,0.00,Wunderground v.1.15,2013-01-27 19:29:00,
2013-01-27 14:34:00,43.2,30.6,30.57,South,186,5.0,13.0,61,0.00,,,0.00,Wunderground v.1.15,2013-01-27 19:34:00,
2013-01-27 14:39:00,42.9,30.4,30.57,South,186,5.0,5.0,61,0.00,,,0.00,Wunderground v.1.15,2013-01-27 19:39:00,
2013-01-27 14:49:00,42.7,30.6,30.57,SSW,196,5.0,5.0,62,0.00,,,0.00,Wunderground v.1.15,2013-01-27 19:49:00,
2013-01-27 14:54:00,42.5,30.4,30.57,SSW,194,4.0,13.0,62,0.00,,,0.00,Wunderground v.1.15,2013-01-27 19:54:00,
2013-01-27 14:59:00,42.0,30.7,30.58,South,184,4.0,4.0,64,0.00,,,0.00,Wunderground v.1.15,2013-01-27 19:59:00,
2013-01-27 15:04:00,42.3,31.4,30.58,SSW,192,3.0,7.0,65,0.00,,,0.00,Wunderground v.1.15,2013-01-27 20:04:00,
2013-01-27 15:14:00,43.6,31.4,30.57,South,186,4.0,9.0,62,0.00,,,0.00,Wunderground v.1.15,2013-01-27 20:14:00,
2013-01-27 15:19:00,43.4,30.8,30.57,South,190,4.0,10.0,61,0.00,,,0.00,Wunderground v.1.15,2013-01-27 20:19:00,
2013-01-27 15:24:00,42.6,30.5,30.57,SSW,198,3.0,10.0,62,0.00,,,0.00,Wunderground v.1.15,2013-01-27 20:24:00,
2013-01-27 15:29:00,42.0,30.3,30.58,South,190,3.0,9.0,63,0.00,,,0.00,Wunderground v.1.15,2013-01-27 20:29:00,
2013-01-27 15:34:00,41.6,30.3,30.58,South,180,2.0,9.0,64,0.00,,,0.00,Wunderground v.1.15,2013-01-27 20:34:00,
2013-01-27 15:39:00,41.1,29.8,30.58,South,186,3.0,3.0,64,0.00,,,0.00,Wunderground v.1.15,2013-01-27 20:39:00,
2013-01-27 15:49:00,40.5,30.0,30.57,South,184,3.0,9.0,66,0.00,,,0.00,Wunderground v.1.15,2013-01-27 20:49:00,
2013-01-27 15:54:00,40.4,29.9,30.58,South,190,3.0,9.0,66,0.00,,,0.00,Wunderground v.1.15,2013-01-27 20:54:00,
2013-01-27 15:59:00,40.4,29.9,30.58,SSW,198,3.0,3.0,66,0.00,,,0.00,Wunderground v.1.15,2013-01-27 20:59:00,
2013-01-27 16:05:00,40.4,29.9,30.58,South,176,3.0,9.0,66,0.00,,,0.00,Wunderground v.1.15,2013-01-27 21:05:00,
2013-01-27 16:14:00,40.2,29.7,30.57,South,179,4.0,9.0,66,0.00,,,0.00,Wunderground v.1.15,2013-01-27 21:14:00,
2013-01-27 16:19:00,40.1,29.6,30.57,South,189,5.0,9.0,66,0.00,,,0.00,Wunderground v.1.15,2013-01-27 21:19:00,
2013-01-27 16:24:00,40.1,30.0,30.57,SSW,196,6.0,9.0,67,0.00,,,0.00,Wunderground v.1.15,2013-01-27 21:24:00,
2013-01-27 16:34:00,40.1,29.6,30.58,South,182,4.0,7.0,66,0.00,,,0.00,Wunderground v.1.15,2013-01-27 21:34:00,
2013-01-27 16:39:00,40.0,29.9,30.57,South,189,4.0,4.0,67,0.00,,,0.00,Wunderground v.1.15,2013-01-27 21:39:00,
2013-01-27 16:44:00,40.0,29.6,30.57,SSE,167,4.0,9.0,66,0.00,,,0.00,Wunderground v.1.15,2013-01-27 21:44:00,
2013-01-27 16:49:00,39.9,29.5,30.58,SSW,213,3.0,3.0,66,0.00,,,0.00,Wunderground v.1.15,2013-01-27 21:49:00,
2013-01-27 16:54:00,39.8,29.4,30.58,South,186,3.0,4.0,66,0.00,,,0.00,Wunderground v.1.15,2013-01-27 21:54:00,
2013-01-27 16:59:00,39.5,29.1,30.58,SE,134,3.0,3.0,66,0.00,,,0.00,Wunderground v.1.15,2013-01-27 21:59:00,
2013-01-27 17:05:00,39.3,28.9,30.58,SSW,199,2.0,3.0,66,0.00,,,0.00,Wunderground v.1.15,2013-01-27 22:05:00,
2013-01-27 17:14:00,38.9,28.9,30.59,SSE,165,2.0,8.0,67,0.00,,,0.00,Wunderground v.1.15,2013-01-27 22:14:00,
2013-01-27 17:19:00,38.7,28.3,30.59,SSW,192,3.0,8.0,66,0.00,,,0.00,Wunderground v.1.15,2013-01-27 22:19:00,
2013-01-27 17:29:00,38.3,28.3,30.59,SSW,194,3.0,3.0,67,0.00,,,0.00,Wunderground v.1.15,2013-01-27 22:29:00,
2013-01-27 17:39:00,38.0,28.4,30.59,South,188,3.0,8.0,68,0.00,,,0.00,Wunderground v.1.15,2013-01-27 22:39:00,
2013-01-27 17:44:00,37.8,28.2,30.59,South,171,4.0,8.0,68,0.00,,,0.00,Wunderground v.1.15,2013-01-27 22:44:00,
2013-01-27 17:54:00,37.5,28.2,30.59,South,172,3.0,8.0,69,0.00,,,0.00,Wunderground v.1.15,2013-01-27 22:54:00,
2013-01-27 17:59:00,37.3,28.1,30.60,NNE,33,2.0,2.0,69,0.00,,,0.00,Wunderground v.1.15,2013-01-27 22:59:00,
2013-01-27 18:05:00,37.2,28.0,30.59,SSW,193,2.0,2.0,69,0.00,,,0.00,Wunderground v.1.15,2013-01-27 23:05:00,
2013-01-27 18:14:00,36.9,28.0,30.59,South,181,2.0,6.0,70,0.00,,,0.00,Wunderground v.1.15,2013-01-27 23:14:00,
2013-01-27 18:24:00,36.6,27.7,30.59,SSE,159,3.0,9.0,70,0.00,,,0.00,Wunderground v.1.15,2013-01-27 23:24:00,
2013-01-27 18:29:00,36.6,28.1,30.60,South,176,3.0,9.0,71,0.00,,,0.00,Wunderground v.1.15,2013-01-27 23:29:00,
2013-01-27 18:34:00,36.5,28.0,30.60,South,190,3.0,9.0,71,0.00,,,0.00,Wunderground v.1.15,2013-01-27 23:34:00,
2013-01-27 18:39:00,36.4,27.9,30.60,SSW,193,3.0,3.0,71,0.00,,,0.00,Wunderground v.1.15,2013-01-27 23:39:00,
2013-01-27 18:44:00,36.4,27.9,30.60,SSW,203,2.0,9.0,71,0.00,,,0.00,Wunderground v.1.15,2013-01-27 23:44:00,
2013-01-27 18:49:00,36.3,28.1,30.60,South,190,2.0,9.0,72,0.00,,,0.00,Wunderground v.1.15,2013-01-27 23:49:00,
2013-01-27 18:59:00,36.2,28.0,30.60,SSW,200,3.0,3.0,72,0.00,,,0.00,Wunderground v.1.15,2013-01-27 23:59:00,
2013-01-27 19:04:00,36.2,28.0,30.60,SSW,194,3.0,9.0,72,0.00,,,0.00,Wunderground v.1.15,2013-01-28 00:04:00,
2013-01-27 19:14:00,36.2,28.0,30.60,SW,221,4.0,9.0,72,0.00,,,0.00,Wunderground v.1.15,2013-01-28 00:14:00,
2013-01-27 19:24:00,36.2,28.4,30.60,South,180,2.0,9.0,73,0.00,,,0.00,Wunderground v.1.15,2013-01-28 00:24:00,
2013-01-27 19:29:00,36.2,28.4,30.60,SW,222,3.0,9.0,73,0.00,,,0.00,Wunderground v.1.15,2013-01-28 00:29:00,
2013-01-27 19:34:00,36.2,28.4,30.60,SSE,161,4.0,9.0,73,0.00,,,0.00,Wunderground v.1.15,2013-01-28 00:34:00,
2013-01-27 19:39:00,36.2,28.4,30.60,South,186,3.0,9.0,73,0.00,,,0.00,Wunderground v.1.15,2013-01-28 00:39:00,
2013-01-27 19:44:00,36.1,28.3,30.59,SSW,201,2.0,9.0,73,0.00,,,0.00,Wunderground v.1.15,2013-01-28 00:44:00,
2013-01-27 19:54:00,36.0,28.2,30.60,SSW,195,4.0,9.0,73,0.00,,,0.00,Wunderground v.1.15,2013-01-28 00:54:00,
2013-01-27 19:59:00,36.0,28.5,30.60,South,189,4.0,4.0,74,0.00,,,0.00,Wunderground v.1.15,2013-01-28 00:59:00,
2013-01-27 20:05:00,36.0,28.5,30.60,SW,214,4.0,5.0,74,0.00,,,0.00,Wunderground v.1.15,2013-01-28 01:05:00,
2013-01-27 20:14:00,35.9,28.7,30.61,SSE,167,3.0,10.0,75,0.00,,,0.00,Wunderground v.1.15,2013-01-28 01:14:00,
2013-01-27 20:19:00,35.9,28.7,30.61,SSW,194,3.0,10.0,75,0.00,,,0.00,Wunderground v.1.15,2013-01-28 01:19:00,
2013-01-27 20:24:00,35.8,28.6,30.61,SSW,207,3.0,10.0,75,0.00,,,0.00,Wunderground v.1.15,2013-01-28 01:24:00,
2013-01-27 20:29:00,35.8,28.6,30.61,SSW,213,4.0,4.0,75,0.00,,,0.00,Wunderground v.1.15,2013-01-28 01:29:00,
2013-01-27 20:34:00,35.8,28.6,30.61,SSE,167,3.0,10.0,75,0.00,,,0.00,Wunderground v.1.15,2013-01-28 01:34:00,
2013-01-27 20:44:00,35.7,28.6,30.61,SSE,159,3.0,10.0,75,0.00,,,0.00,Wunderground v.1.15,2013-01-28 01:44:00,
2013-01-27 20:49:00,35.7,28.6,30.61,South,186,4.0,10.0,75,0.00,,,0.00,Wunderground v.1.15,2013-01-28 01:49:00,
2013-01-27 20:54:00,35.8,28.6,30.61,South,182,3.0,10.0,75,0.00,,,0.00,Wunderground v.1.15,2013-01-28 01:54:00,
2013-01-27 20:59:00,35.7,28.9,30.61,SSW,192,3.0,3.0,76,0.00,,,0.00,Wunderground v.1.15,2013-01-28 01:59:00,
2013-01-27 21:05:00,35.7,28.9,30.61,South,182,3.0,3.0,76,0.00,,,0.00,Wunderground v.1.15,2013-01-28 02:05:00,
2013-01-27 21:14:00,35.6,28.8,30.61,SSW,199,2.0,6.0,76,0.00,,,0.00,Wunderground v.1.15,2013-01-28 02:14:00,
2013-01-27 21:24:00,35.5,28.7,30.60,SSW,202,4.0,6.0,76,0.00,,,0.00,Wunderground v.1.15,2013-01-28 02:24:00,
2013-01-27 21:29:00,35.5,29.0,30.60,SSW,205,3.0,10.0,77,0.00,,,0.00,Wunderground v.1.15,2013-01-28 02:29:00,
2013-01-27 21:34:00,35.4,28.9,30.59,SSW,199,3.0,10.0,77,0.00,,,0.00,Wunderground v.1.15,2013-01-28 02:34:00,
2013-01-27 21:39:00,35.3,28.8,30.59,SSW,195,3.0,10.0,77,0.00,,,0.00,Wunderground v.1.15,2013-01-28 02:39:00,
2013-01-27 21:44:00,35.3,28.8,30.59,South,190,4.0,10.0,77,0.00,,,0.00,Wunderground v.1.15,2013-01-28 02:44:00,
2013-01-27 21:54:00,35.3,28.8,30.60,South,182,3.0,10.0,77,0.00,,,0.00,Wunderground v.1.15,2013-01-28 02:54:00,
2013-01-27 21:59:00,35.4,28.9,30.60,South,183,3.0,3.0,77,0.00,,,0.00,Wunderground v.1.15,2013-01-28 02:59:00,
2013-01-27 22:04:00,35.3,29.1,30.60,South,178,4.0,4.0,78,0.00,,,0.00,Wunderground v.1.15,2013-01-28 03:04:00,
2013-01-27 22:14:00,35.2,29.0,30.59,SSE,163,3.0,5.0,78,0.00,,,0.00,Wunderground v.1.15,2013-01-28 03:14:00,
2013-01-27 22:19:00,35.3,29.1,30.59,South,186,2.0,11.0,78,0.00,,,0.00,Wunderground v.1.15,2013-01-28 03:19:00,
2013-01-27 22:29:00,35.3,29.1,30.59,South,186,4.0,11.0,78,0.00,,,0.00,Wunderground v.1.15,2013-01-28 03:29:00,
2013-01-27 22:34:00,35.3,29.4,30.59,SSW,196,3.0,11.0,79,0.00,,,0.00,Wunderground v.1.15,2013-01-28 03:34:00,
2013-01-27 22:39:00,35.1,29.9,30.58,SSE,164,3.0,3.0,81,0.00,,,0.00,Wunderground v.1.15,2013-01-28 03:39:00,
2013-01-27 22:44:00,34.8,29.9,30.58,SW,225,3.0,7.0,82,0.00,,,0.01,Wunderground v.1.15,2013-01-28 03:44:00,
2013-01-27 22:54:00,34.4,30.4,30.58,South,188,3.0,11.0,85,0.00,,,0.01,Wunderground v.1.15,2013-01-28 03:54:00,
2013-01-27 22:59:00,34.4,30.6,30.58,South,187,4.0,11.0,86,0.00,,,0.01,Wunderground v.1.15,2013-01-28 03:59:00,
2013-01-27 23:04:00,34.3,30.8,30.58,South,170,4.0,11.0,87,0.00,,,0.02,Wunderground v.1.15,2013-01-28 04:04:00,
2013-01-27 23:14:00,34.0,30.8,30.57,SSW,197,3.0,11.0,88,0.00,,,0.02,Wunderground v.1.15,2013-01-28 04:14:00,
2013-01-27 23:19:00,33.9,30.7,30.57,South,182,4.0,4.0,88,0.00,,,0.02,Wunderground v.1.15,2013-01-28 04:19:00,
2013-01-27 23:24:00,33.9,30.7,30.57,SSW,198,3.0,11.0,88,0.00,,,0.02,Wunderground v.1.15,2013-01-28 04:24:00,
2013-01-27 23:34:00,33.8,30.9,30.57,SSE,164,1.0,3.0,89,0.00,,,0.03,Wunderground v.1.15,2013-01-28 04:34:00,
2013-01-27 23:39:00,33.7,31.1,30.57,South,188,1.0,1.0,90,0.00,,,0.03,Wunderground v.1.15,2013-01-28 04:39:00,
2013-01-27 23:44:00,33.7,30.8,30.56,SSE,165,2.0,2.0,89,0.00,,,0.03,Wunderground v.1.15,2013-01-28 04:44:00,
2013-01-27 23:49:00,33.7,31.1,30.57,SSE,158,1.0,1.0,90,0.00,,,0.03,Wunderground v.1.15,2013-01-28 04:49:00,
2013-01-27 23:54:00,33.8,31.2,30.57,South,182,1.0,4.0,90,0.00,,,0.03,Wunderground v.1.15,2013-01-28 04:54:00,
2013-01-27 23:59:00,33.8,31.2,30.57,SSE,160,2.0,11.0,90,0.00,,,0.03,Wunderground v.1.15,2013-01-28 04:59:00,